This is the latest recevied weather packets stored in our database for station/object VE2XOX. If no packets are shown the sender has not sent any weather packets the latest 10 day(s).
| Time | Temp. | Humidity | Pressure | Rain* | Wind** | Luminosity | Snow |
|---|---|---|---|---|---|---|---|
| 1777993524 | 17.22° C | 59% | 999.4 hPa | 0 mm | - | - | - |
| 1777993220 | 17.22° C | 59% | 999.4 hPa | 0 mm | - | - | - |
| 1777992932 | 17.22° C | 59% | 999.5 hPa | 0 mm | - | - | - |
| 1777992614 | 17.22° C | 59% | 999.5 hPa | 0 mm | - | - | - |
| 1777992320 | 17.22° C | 59% | 999.6 hPa | 0 mm | - | - | - |
| 1777992033 | 17.22° C | 58% | 999.6 hPa | 0 mm | - | - | - |
| 1777991718 | 17.22° C | 57% | 999.5 hPa | 0 mm | - | - | - |
| 1777991422 | 17.22° C | 58% | 999.5 hPa | 0 mm | - | - | - |
| 1777991131 | 17.22° C | 58% | 999.5 hPa | 0 mm | - | - | - |
| 1777990812 | 16.67° C | 59% | 999.5 hPa | 0 mm | - | - | - |
| 1777990515 | 16.11° C | 59% | 999.5 hPa | 0 mm | - | - | - |
| 1777989931 | 16.11° C | 59% | 999.7 hPa | 0 mm | - | - | - |
| 1777989615 | 15.56° C | 59% | 999.7 hPa | 0 mm | - | - | - |
| 1777989325 | 15.56° C | 61% | 999.8 hPa | 0 mm | - | - | - |
| 1777989027 | 15.56° C | 60% | 999.8 hPa | 0 mm | - | - | - |
| 1777988737 | 15.56° C | 60% | 999.9 hPa | 0 mm | - | - | - |
| 1777988420 | 15.56° C | 60% | 1000 hPa | 0 mm | - | - | - |
| 1777988127 | 15.56° C | 60% | 1000 hPa | 0 mm | - | - | - |
| 1777987812 | 15.56° C | 59% | 1000.1 hPa | 0 mm | - | - | - |
| 1777987524 | 15.56° C | 59% | 1000.1 hPa | 0 mm | - | - | - |
| 1777987228 | 15.56° C | 61% | 1000.2 hPa | 0 mm | - | - | - |
| 1777986912 | 15° C | 60% | 1000.2 hPa | 0 mm | - | - | - |
| 1777986622 | 15° C | 63% | 1000.2 hPa | 0 mm | - | - | - |
| 1777986327 | 14.44° C | 61% | 1000.2 hPa | 0 mm | - | - | - |
| 1777986033 | 14.44° C | 61% | 1000 hPa | 0 mm | - | - | - |
* Rain latest hour (hover to see other rain measurements)
** Current wind speed in m/s (hover to see current wind gust speed)